| time (UTC) | temp C | wind direction | speed KPH | gust KPH | rain 1hr cm | rain 24hr cm | rain mn cm | humidity % | barometer mb |
| 20260505040805 | 12 | 69 | 0.0 | 4.8 | 0.66 | 1.88 | 1.88 | 92 | 1015.2 |
| 20260505035816 | 12 | 64 | 3.2 | 9.7 | 0.58 | 1.73 | 1.73 | 92 | 1015.4 |
| 20260505034813 | 12 | 51 | 0.0 | 3.2 | 0.46 | 1.57 | 1.57 | 92 | 1015.3 |
| 20260505033813 | 12 | 37 | 0.0 | 1.6 | 0.41 | 1.47 | 1.47 | 92 | 1015.2 |
| 20260505032807 | 12 | 29 | 0.0 | 4.8 | 0.33 | 1.37 | 1.37 | 92 | 1015.1 |
| 20260505031828 | 12 | 48 | 1.6 | 8.0 | 0.28 | 1.30 | 1.30 | 92 | 1015.1 |
| 20260505030804 | 12 | 6 | 4.8 | 9.7 | 0.23 | 1.22 | 1.22 | 92 | 1015.4 |
| 20260505025820 | 12 | 18 | 4.8 | 11.3 | 0.20 | 1.14 | 1.14 | 92 | 1015.4 |
| 20260505024815 | 12 | 38 | 4.8 | 8.0 | 0.23 | 1.12 | 1.12 | 91 | 1015.2 |
| 20260505023835 | 12 | 52 | 3.2 | 11.3 | 0.20 | 1.07 | 1.07 | 91 | 1014.9 |
| 20260505022809 | 12 | 110 | 6.4 | 12.9 | 0.23 | 1.04 | 1.04 | 91 | 1014.6 |
| 20260505021806 | 12 | 111 | 8.0 | 12.9 | 0.25 | 1.02 | 1.02 | 91 | 1014.2 |
| 20260505020838 | 12 | 73 | 4.8 | 8.0 | 0.28 | 0.99 | 0.99 | 91 | 1014.3 |
| 20260505015815 | 12 | 82 | 1.6 | 4.8 | 0.23 | 0.94 | 0.94 | 91 | 1014.6 |
| 20260505014837 | 12 | 71 | 3.2 | 8.0 | 0.20 | 0.89 | 0.89 | 91 | 1014.6 |
| 20260505013807 | 12 | 112 | 1.6 | 6.4 | 0.20 | 0.86 | 0.86 | 91 | 1014.7 |
| 20260505012803 | 12 | 97 | 4.8 | 8.0 | 0.18 | 0.81 | 0.81 | 90 | 1014.5 |
| 20260505011803 | 12 | 111 | 3.2 | 6.4 | 0.13 | 0.74 | 0.74 | 90 | 1014.4 |
| 20260505010818 | 12 | 106 | 1.6 | 4.8 | 0.10 | 0.71 | 0.71 | 90 | 1014.4 |
| 20260505005820 | 12 | 97 | 1.6 | 6.4 | 0.10 | 0.71 | 0.71 | 90 | 1014.6 |
| 20260505004837 | 12 | 114 | 1.6 | 4.8 | 0.18 | 0.69 | 0.69 | 90 | 1014.9 |
| 20260505003813 | 12 | 105 | 1.6 | 8.0 | 0.20 | 0.66 | 0.66 | 90 | 1015.2 |
| 20260505002816 | 12 | 120 | 1.6 | 8.0 | 0.20 | 0.64 | 0.64 | 90 | 1015.2 |
| 20260505001819 | 12 | 105 | 4.8 | 14.5 | 0.20 | 0.61 | 0.61 | 90 | 1015.0 |
| 20260505000817 | 13 | 91 | 4.8 | 12.9 | 0.23 | 0.61 | 0.61 | 90 | 1015.0 |
| 20260504235815 | 13 | 69 | 4.8 | 11.3 | 0.25 | 0.58 | 0.58 | 90 | 1015.2 |
| 20260504234816 | 13 | 102 | 4.8 | 8.0 | 0.23 | 0.51 | 0.51 | 90 | 1015.2 |
| 20260504233833 | 13 | 109 | 1.6 | 8.0 | 0.20 | 0.46 | 0.46 | 90 | 1015.1 |
| 20260504232812 | 13 | 96 | 3.2 | 8.0 | 0.20 | 0.43 | 0.43 | 90 | 1015.0 |
| 20260504231811 | 13 | 80 | 4.8 | 9.7 | 0.20 | 0.41 | 0.41 | 89 | 1015.1 |
| 20260504230809 | 13 | 99 | 6.4 | 11.3 | 0.20 | 0.38 | 0.38 | 89 | 1015.2 |
| 20260504225827 | 13 | 96 | 6.4 | 11.3 | 0.15 | 0.33 | 0.33 | 88 | 1015.1 |
| 20260504224807 | 13 | 116 | 3.2 | 8.0 | 0.13 | 0.28 | 0.28 | 88 | 1015.2 |
| 20260504223802 | 13 | 126 | 3.2 | 11.3 | 0.13 | 0.25 | 0.25 | 87 | 1015.2 |
| 20260504222820 | 13 | 142 | 6.4 | 11.3 | 0.10 | 0.23 | 0.23 | 86 | 1015.2 |
| 20260504221819 | 13 | 102 | 6.4 | 11.3 | 0.10 | 0.20 | 0.20 | 86 | 1015.3 |
| 20260504220833 | 14 | 104 | 4.8 | 11.3 | 0.08 | 0.18 | 0.18 | 86 | 1015.4 |
| 20260504215833 | 14 | 122 | 6.4 | 11.3 | 0.05 | 0.15 | 0.18 | 85 | 1015.3 |
| 20260504214809 | 14 | 110 | 4.8 | 9.7 | 0.05 | 0.15 | 0.15 | 83 | 1015.4 |
| 20260504213806 | 14 | 128 | 4.8 | 9.7 | 0.03 | 0.13 | 0.13 | 82 | 1015.3 |
| 20260504212805 | 15 | 93 | 3.2 | 11.3 | 0.03 | 0.13 | 0.13 | 81 | 1015.5 |
| 20260504211806 | 15 | 174 | 4.8 | 9.7 | 0.00 | 0.10 | 0.10 | 81 | 1015.4 |
| 20260504210805 | 15 | 124 | 3.2 | 11.3 | 0.00 | 0.10 | 0.10 | 81 | 1015.6 |
| 20260504205808 | 15 | 182 | 3.2 | 11.3 | 0.00 | 0.10 | 0.10 | 81 | 1015.4 |
| 20260504204810 | 15 | 174 | 3.2 | 6.4 | 0.00 | 0.10 | 0.10 | 83 | 1015.3 |
| 20260504203807 | 15 | 149 | 6.4 | 12.9 | 0.03 | 0.10 | 0.10 | 81 | 1015.5 |
| 20260504202808 | 15 | 153 | 8.0 | 11.3 | 0.03 | 0.10 | 0.10 | 83 | 1015.2 |
| 20260504201809 | 15 | 152 | 4.8 | 11.3 | 0.03 | 0.10 | 0.10 | 83 | 1015.4 |
| 20260504200804 | 15 | 134 | 0.0 | 4.8 | 0.03 | 0.10 | 0.10 | 83 | 1015.2 |
| 20260504195803 | 14 | 181 | 1.6 | 6.4 | 0.03 | 0.10 | 0.10 | 82 | 1015.3 |
| 20260504194807 | 14 | 249 | 0.0 | 6.4 | 0.03 | 0.10 | 0.10 | 81 | 1015.4 |
| 20260504193810 | 14 | 138 | 3.2 | 9.7 | 0.00 | 0.08 | 0.08 | 81 | 1015.6 |
| 20260504192802 | 14 | 140 | 1.6 | 9.7 | 0.00 | 0.08 | 0.08 | 81 | 1015.6 |
| 20260504191826 | 14 | 151 | 4.8 | 12.9 | 0.00 | 0.08 | 0.08 | 83 | 1015.5 |
| 20260504190805 | 14 | 218 | 4.8 | 8.0 | 0.00 | 0.08 | 0.08 | 84 | 1015.4 |
| 20260504185802 | 13 | 195 | 1.6 | 14.5 | 0.00 | 0.08 | 0.08 | 84 | 1015.5 |
| 20260504184805 | 13 | 232 | 4.8 | 14.5 | 0.03 | 0.08 | 0.08 | 84 | 1015.6 |
| 20260504183806 | 13 | 158 | 4.8 | 16.1 | 0.05 | 0.08 | 0.08 | 84 | 1015.7 |
| 20260504182813 | 13 | 168 | 4.8 | 14.5 | 0.08 | 0.08 | 0.08 | 85 | 1015.7 |
| 20260504181813 | 13 | 141 | 3.2 | 6.4 | 0.08 | 0.08 | 0.08 | 86 | 1015.8 |
| 20260504180813 | 13 | 142 | 3.2 | 6.4 | 0.08 | 0.08 | 0.08 | 86 | 1015.8 |
| 20260504175831 | 13 | 150 | 4.8 | 14.5 | 0.08 | 0.08 | 0.08 | 85 | 1015.6 |
| 20260504174831 | 13 | 170 | 4.8 | 11.3 | 0.05 | 0.05 | 0.05 | 83 | 1015.4 |
| 20260504173815 | 13 | 186 | 4.8 | 12.9 | 0.03 | 0.03 | 0.03 | 82 | 1015.3 |
| 20260504172808 | 13 | 157 | 6.4 | 16.1 | 0.00 | 0.00 | 0.00 | 81 | 1015.2 |
| 20260504171826 | 13 | 163 | 4.8 | 16.1 | 0.00 | 0.00 | 0.00 | 79 | 1015.2 |
| 20260504170818 | 13 | 184 | 4.8 | 14.5 | 0.00 | 0.00 | 0.00 | 79 | 1015.2 |
| 20260504150817 | 13 | 120 | 8.0 | 14.5 | 0.00 | 0.00 | 0.00 | 82 | 1014.8 |
| 20260504140815 | 12 | 107 | 6.4 | 11.3 | 0.00 | 0.00 | 0.00 | 85 | 1014.7 |
| 20260504130813 | 12 | 154 | 6.4 | 14.5 | 0.00 | 0.00 | 0.00 | 84 | 1014.3 |
| 20260504081812 | 12 | 189 | 4.8 | 9.7 | 0.00 | 0.00 | 0.00 | 80 | 1014.1 |
| 20260504080816 | 12 | 126 | 4.8 | 9.7 | 0.00 | 0.00 | 0.00 | 80 | 1014.3 |
| 20260504045813 | 15 | 187 | 3.2 | 11.3 | 0.00 | 0.00 | 0.00 | 69 | 1013.4 |
| 20260504044831 | 15 | 176 | 8.0 | 12.9 | 0.00 | 0.00 | 0.00 | 68 | 1013.3 |
| 20260504043809 | 16 | 197 | 4.8 | 9.7 | 0.00 | 0.00 | 0.00 | 68 | 1013.2 |